Rickmers New Orleans — V7FF2 — position and weather

sailwx.info

Track history (hours):
 
Tides and Currents Weather Stations Pressure Air Temp Water Temp Dewpoint Dewpoint Depression Visibility Wind Speed Wind Dir Waves Ship Positions

Rickmers New Orleans

Last reported at 2014-Aug-30 14:33 UTC. Time now 2014-Aug-30 16:34 UTC.
Position N 52°53' E 003°50'.

Length 192.9 m; beam 27.8 m; draft 11.2 m.

Type: Ship. MMSI: 538001922.

Date/timePositionNaut miles runAvg speedWind from/ knotsBaromVisibWave heightAir tempDewpointWater temp
2014-Aug-30 14:33N 52°53' E 003°50'1615.1
2014-Aug-30 13:30N 53°03' E 004°09'2814.5
2014-Aug-30 11:34N 53°27' E 004°36'1313.2
2014-Aug-30 10:33N 53°33' E 004°55'1312.8
2014-Aug-30 09:33N 53°38' E 005°15'1212.3
2014-Aug-30 08:33N 53°41' E 005°35'1412.6
2014-Aug-30 07:29N 53°45' E 005°57'5513.5
2014-Aug-30 03:25N 54°00' E 007°27'1214.2
2014-Aug-30 02:33N 54°02' E 007°47'1414.0
2014-Aug-30 01:33N 54°01' E 008°11'1313.0
2014-Aug-30 00:33N 53°58' E 008°33'1212.3
2014-Aug-29 23:33N 53°50' E 008°49'1212.2
2014-Aug-29 22:33N 53°53' E 009°09'1313.0
2014-Aug-29 21:33N 53°44' E 009°26'1413.9
2014-Aug-29 20:33N 53°34' E 009°42'9 9.3
2014-Aug-29 19:34N 53°31' E 009°56'2 2.4
2014-Aug-29 18:33N 53°29' E 009°59'0 0.0
2014-Aug-29 17:22N 53°29' E 009°59'0 0.0
2014-Aug-29 16:32N 53°29' E 009°59'0 0.0
2014-Aug-29 15:19N 53°29' E 009°59'0 0.0
2014-Aug-29 14:32N 53°29' E 009°59'0 0.0
2014-Aug-29 13:32N 53°29' E 009°59'0 0.0
2014-Aug-29 12:32N 53°29' E 009°59'0 0.0
2014-Aug-29 11:28N 53°29' E 009°59'0 0.0
2014-Aug-29 10:28N 53°29' E 009°59'0 0.0
2014-Aug-29 09:31N 53°29' E 009°59'0 0.0
2014-Aug-29 08:25N 53°29' E 009°59'0 0.0
2014-Aug-29 07:25N 53°29' E 009°59'0 0.0
2014-Aug-29 06:28N 53°29' E 009°59'0 0.0
2014-Aug-29 05:22N 53°29' E 009°59'0 0.0
2014-Aug-29 04:28N 53°29' E 009°59'0 0.0
2014-Aug-29 03:28N 53°29' E 009°59'0 0.0
2014-Aug-29 02:32N 53°29' E 009°59'0 0.0
2014-Aug-29 01:25N 53°29' E 009°59'0 0.0
2014-Aug-29 00:32N 53°29' E 009°59'0 0.0
2014-Aug-28 23:28N 53°29' E 009°59'0 0.0
2014-Aug-28 22:31N 53°29' E 009°59'0 0.0
2014-Aug-28 21:32N 53°29' E 009°59'0 0.0
2014-Aug-28 20:13N 53°29' E 009°59'0 0.0
2014-Aug-28 19:32N 53°29' E 009°59'0 0.0
2014-Aug-28 18:32N 53°29' E 009°59'0 0.0
2014-Aug-28 17:28N 53°29' E 009°59'0 0.0
2014-Aug-28 16:25N 53°29' E 009°59'0 0.0
2014-Aug-28 15:28N 53°29' E 009°59'0 0.0
2014-Aug-28 14:25N 53°29' E 009°59'0 0.0
2014-Aug-28 13:32N 53°29' E 009°59'0 0.0
2014-Aug-28 12:25N 53°29' E 009°59'0 0.0
2014-Aug-28 11:32N 53°29' E 009°59'0 0.0
2014-Aug-28 10:25N 53°29' E 009°59'0 0.0
2014-Aug-28 09:28N 53°29' E 009°59'0 0.0
2014-Aug-28 08:25N 53°29' E 009°59'0 0.0
2014-Aug-28 07:32N 53°29' E 009°59'0 0.0
2014-Aug-28 06:19N 53°29' E 009°59'0 0.0
2014-Aug-28 05:32N 53°29' E 009°59'0 0.0
2014-Aug-28 04:31N 53°29' E 009°59'0 0.0
2014-Aug-28 03:25N 53°29' E 009°59'0 0.0
2014-Aug-28 02:25N 53°29' E 009°59'0 0.0
2014-Aug-28 01:32N 53°29' E 009°59'0 0.0
2014-Aug-28 00:32N 53°29' E 009°59'0 0.0
2014-Aug-27 23:25N 53°29' E 009°59'0 0.0
2014-Aug-27 22:28N 53°29' E 009°59'0 0.0
2014-Aug-27 21:25N 53°29' E 009°59'0 0.0
2014-Aug-27 20:28N 53°29' E 009°59'0 0.0
2014-Aug-27 19:32N 53°29' E 009°59'0 0.0
2014-Aug-27 18:25N 53°29' E 009°59'0 0.0
2014-Aug-27 17:32N 53°29' E 009°59'0 0.0
2014-Aug-27 16:25N 53°29' E 009°59'0 0.0
2014-Aug-27 15:33N 53°29' E 009°59'1 1.1
2014-Aug-27 14:33N 53°30' E 009°58'5 4.6
2014-Aug-27 13:33N 53°33' E 009°51'1010.1
2014-Aug-27 12:33N 53°36' E 009°36'1212.1
2014-Aug-27 11:33N 53°46' E 009°24'1211.9
2014-Aug-27 10:33N 53°53' E 009°08'1212.1
2014-Aug-27 09:34N 53°50' E 008°48'1212.1
2014-Aug-27 08:33N 53°58' E 008°31'1313.4
2014-Aug-27 07:33N 53°60' E 008°09'8 7.8
2014-Aug-27 06:33N 53°58' E 007°56'3 2.6
2014-Aug-27 05:33N 53°58' E 007°51'1 0.6
2014-Aug-27 04:28N 53°58' E 007°52'5911.1
2014-Aug-26 23:07N 53°43' E 006°15'712.7
2014-Aug-26 22:33N 53°41' E 006°04'1212.4
2014-Aug-26 21:33N 53°37' E 005°44'1212.4
2014-Aug-26 20:33N 53°33' E 005°24'1312.6
2014-Aug-26 19:34N 53°29' E 005°04'1212.4
2014-Aug-26 18:33N 53°24' E 004°45'1313.0
2014-Aug-26 17:32N 53°13' E 004°33'1313.4
2014-Aug-26 16:33N 53°02' E 004°22'1313.5
2014-Aug-26 15:33N 52°49' E 004°13'3015.0
2014-Aug-26 13:33N 52°28' E 003°39'4314.2
2014-Aug-26 10:33N 51°47' E 003°16'1211.7
2014-Aug-26 09:30N 51°36' E 003°10'1213.1
2014-Aug-26 08:34N 51°25' E 003°00'1616.3
2014-Aug-26 07:34N 51°25' E 003°26'1110.8
2014-Aug-26 06:34N 51°23' E 003°43'1211.9
2014-Aug-26 05:34N 51°23' E 004°02'10 9.6
2014-Aug-26 04:33N 51°21' E 004°17'0 0.0
2014-Aug-26 03:33N 51°21' E 004°17'2 2.3
2014-Aug-26 02:33N 51°19' E 004°19'3 2.7
2014-Aug-26 01:32N 51°17' E 004°23'0 0.0
2014-Aug-26 00:29N 51°17' E 004°23'0 0.0
2014-Aug-25 23:32N 51°17' E 004°23'0 0.0
2014-Aug-25 22:32N 51°17' E 004°23'0 0.0
2014-Aug-25 21:32N 51°17' E 004°23'0 0.0
2014-Aug-25 20:32N 51°17' E 004°23'0 0.0
2014-Aug-25 19:32N 51°17' E 004°23'0 0.0
2014-Aug-25 18:32N 51°17' E 004°23'0 0.0
2014-Aug-25 17:32N 51°17' E 004°23'0 0.0
2014-Aug-25 16:32N 51°17' E 004°23'0 0.0
2014-Aug-25 15:29N 51°17' E 004°23'0 0.0
2014-Aug-25 14:26N 51°17' E 004°23'0 0.0
2014-Aug-25 13:32N 51°17' E 004°23'0 0.0
2014-Aug-25 12:32N 51°17' E 004°23'0 0.0
2014-Aug-25 11:29N 51°17' E 004°23'0 0.0
2014-Aug-25 10:32N 51°17' E 004°23'0 0.0
2014-Aug-25 09:32N 51°17' E 004°23'0 0.0
2014-Aug-25 08:32N 51°17' E 004°23'0 0.0
2014-Aug-25 07:32N 51°17' E 004°23'0 0.0
2014-Aug-25 06:32N 51°17' E 004°23'0 0.0
2014-Aug-25 05:32N 51°17' E 004°23'0 0.0
2014-Aug-25 04:32N 51°17' E 004°23'0 0.0
2014-Aug-25 03:32N 51°17' E 004°23'0 0.0
2014-Aug-25 02:32N 51°17' E 004°23'0 0.0
2014-Aug-25 01:32N 51°17' E 004°23'0 0.0
2014-Aug-25 00:29N 51°17' E 004°23'0 0.0
2014-Aug-24 23:32N 51°17' E 004°23'0 0.0
2014-Aug-24 22:32N 51°17' E 004°23'0 0.0
2014-Aug-24 21:29N 51°17' E 004°23'0 0.0
2014-Aug-24 20:32N 51°17' E 004°23'0 0.0
2014-Aug-24 19:32N 51°17' E 004°23'0 0.0
2014-Aug-24 18:32N 51°17' E 004°23'0 0.0
2014-Aug-24 17:32N 51°17' E 004°23'0 0.0
2014-Aug-24 16:32N 51°17' E 004°23'0 0.0
2014-Aug-24 15:32N 51°17' E 004°23'0 0.0
2014-Aug-24 14:32N 51°17' E 004°23'0 0.0
2014-Aug-24 13:32N 51°17' E 004°23'0 0.0
2014-Aug-24 12:32N 51°17' E 004°23'0 0.0
2014-Aug-24 11:32N 51°17' E 004°23'0 0.0
2014-Aug-24 10:32N 51°17' E 004°23'0 0.0
2014-Aug-24 09:32N 51°17' E 004°23'0 0.0
2014-Aug-24 08:32N 51°17' E 004°23'0 0.0
2014-Aug-24 07:32N 51°17' E 004°23'0 0.0
2014-Aug-24 06:32N 51°17' E 004°23'0 0.0
2014-Aug-24 05:32N 51°17' E 004°23'0 0.0
2014-Aug-24 04:32N 51°17' E 004°23'0 0.0
2014-Aug-24 03:32N 51°17' E 004°23'0 0.0
2014-Aug-24 02:29N 51°17' E 004°23'0 0.0
2014-Aug-24 01:32N 51°17' E 004°23'0 0.0
2014-Aug-24 00:32N 51°17' E 004°23'0 0.0
2014-Aug-23 23:32N 51°17' E 004°23'0 0.0
2014-Aug-23 22:32N 51°17' E 004°23'0 0.0
2014-Aug-23 21:32N 51°17' E 004°23'0 0.0
2014-Aug-23 20:32N 51°17' E 004°23'0 0.0
2014-Aug-23 19:32N 51°17' E 004°23'0 0.0
2014-Aug-23 03:32N 51°17' E 004°23'0 0.0
2014-Aug-23 02:32N 51°17' E 004°23'0 0.0
2014-Aug-23 01:32N 51°17' E 004°23'0 0.0
2014-Aug-23 00:32N 51°17' E 004°23'0 0.0
2014-Aug-22 23:32N 51°17' E 004°23'0 0.0
2014-Aug-22 22:32N 51°17' E 004°23'0 0.0
2014-Aug-22 21:29N 51°17' E 004°23'0 0.0
2014-Aug-22 20:32N 51°17' E 004°23'0 0.0
2014-Aug-22 19:32N 51°17' E 004°23'0 0.0
2014-Aug-22 18:32N 51°17' E 004°23'0 0.0
2014-Aug-22 17:29N 51°17' E 004°23'0 0.0
2014-Aug-22 16:32N 51°17' E 004°23'0 0.0
2014-Aug-22 15:32N 51°17' E 004°23'0 0.0
2014-Aug-22 14:32N 51°17' E 004°23'0 0.0
2014-Aug-22 13:32N 51°17' E 004°23'0 0.0
2014-Aug-22 12:34N 51°17' E 004°23'0 0.2
2014-Aug-22 11:33N 51°17' E 004°22'4 3.7
2014-Aug-22 10:34N 51°20' E 004°18'1 1.3
2014-Aug-22 09:34N 51°21' E 004°17'0 0.2
2014-Aug-22 08:34N 51°21' E 004°17'10 9.5
2014-Aug-22 07:33N 51°23' E 004°02'10 9.8
2014-Aug-22 06:34N 51°21' E 003°47'1010.4
2014-Aug-22 05:33N 51°25' E 003°31'1615.7
2014-Aug-22 04:34N 51°24' E 003°06'1514.6
2014-Aug-22 03:33N 51°22' E 002°43'1312.7
2014-Aug-22 02:32N 51°20' E 002°22'1313.8
2014-Aug-22 01:33N 51°13' E 002°04'1414.3
2014-Aug-22 00:33N 51°05' E 001°45'1515.0
2014-Aug-21 23:33N 50°54' E 001°28'2014.3
2014-Aug-21 22:08N 50°36' E 001°12'1214.0
2014-Aug-21 21:17N 50°29' E 000°58'1014.2
2014-Aug-21 20:33N 50°26' E 000°42'28112.8
2014-Aug-20 22:33N 48°14' W 005°38'4113.8
2014-Aug-20 19:33N 47°44' W 004°56'  
Track history (hours):
 
Tides and Currents Weather Stations Pressure Air Temp Water Temp Dewpoint Dewpoint Depression Visibility Wind Speed Wind Dir Waves Ship Positions

Rickmers New Orleans

Last reported at 2014-Aug-30 14:33 UTC. Time now 2014-Aug-30 16:34 UTC.
Position N 52°53' E 003°50'.

Length 192.9 m; beam 27.8 m; draft 11.2 m.

Type: Ship. MMSI: 538001922.

Date/timePositionNaut miles runAvg speedWind from/ knotsBaromVisibWave heightAir tempDewpointWater temp
2014-Aug-30 14:33N 52°53' E 003°50'1615.1
2014-Aug-30 13:30N 53°03' E 004°09'2814.5
2014-Aug-30 11:34N 53°27' E 004°36'1313.2
2014-Aug-30 10:33N 53°33' E 004°55'1312.8
2014-Aug-30 09:33N 53°38' E 005°15'1212.3
2014-Aug-30 08:33N 53°41' E 005°35'1412.6
2014-Aug-30 07:29N 53°45' E 005°57'5513.5
2014-Aug-30 03:25N 54°00' E 007°27'1214.2
2014-Aug-30 02:33N 54°02' E 007°47'1414.0
2014-Aug-30 01:33N 54°01' E 008°11'1313.0
2014-Aug-30 00:33N 53°58' E 008°33'1212.3
2014-Aug-29 23:33N 53°50' E 008°49'1212.2
2014-Aug-29 22:33N 53°53' E 009°09'1313.0
2014-Aug-29 21:33N 53°44' E 009°26'1413.9
2014-Aug-29 20:33N 53°34' E 009°42'9 9.3
2014-Aug-29 19:34N 53°31' E 009°56'2 2.4
2014-Aug-29 18:33N 53°29' E 009°59'0 0.0
2014-Aug-29 17:22N 53°29' E 009°59'0 0.0
2014-Aug-29 16:32N 53°29' E 009°59'0 0.0
2014-Aug-29 15:19N 53°29' E 009°59'0 0.0
2014-Aug-29 14:32N 53°29' E 009°59'0 0.0
2014-Aug-29 13:32N 53°29' E 009°59'0 0.0
2014-Aug-29 12:32N 53°29' E 009°59'0 0.0
2014-Aug-29 11:28N 53°29' E 009°59'0 0.0
2014-Aug-29 10:28N 53°29' E 009°59'0 0.0
2014-Aug-29 09:31N 53°29' E 009°59'0 0.0
2014-Aug-29 08:25N 53°29' E 009°59'0 0.0
2014-Aug-29 07:25N 53°29' E 009°59'0 0.0
2014-Aug-29 06:28N 53°29' E 009°59'0 0.0
2014-Aug-29 05:22N 53°29' E 009°59'0 0.0
2014-Aug-29 04:28N 53°29' E 009°59'0 0.0
2014-Aug-29 03:28N 53°29' E 009°59'0 0.0
2014-Aug-29 02:32N 53°29' E 009°59'0 0.0
2014-Aug-29 01:25N 53°29' E 009°59'0 0.0
2014-Aug-29 00:32N 53°29' E 009°59'0 0.0
2014-Aug-28 23:28N 53°29' E 009°59'0 0.0
2014-Aug-28 22:31N 53°29' E 009°59'0 0.0
2014-Aug-28 21:32N 53°29' E 009°59'0 0.0
2014-Aug-28 20:13N 53°29' E 009°59'0 0.0
2014-Aug-28 19:32N 53°29' E 009°59'0 0.0
2014-Aug-28 18:32N 53°29' E 009°59'0 0.0
2014-Aug-28 17:28N 53°29' E 009°59'0 0.0
2014-Aug-28 16:25N 53°29' E 009°59'0 0.0
2014-Aug-28 15:28N 53°29' E 009°59'0 0.0
2014-Aug-28 14:25N 53°29' E 009°59'0 0.0
2014-Aug-28 13:32N 53°29' E 009°59'0 0.0
2014-Aug-28 12:25N 53°29' E 009°59'0 0.0
2014-Aug-28 11:32N 53°29' E 009°59'0 0.0
2014-Aug-28 10:25N 53°29' E 009°59'0 0.0
2014-Aug-28 09:28N 53°29' E 009°59'0 0.0
2014-Aug-28 08:25N 53°29' E 009°59'0 0.0
2014-Aug-28 07:32N 53°29' E 009°59'0 0.0
2014-Aug-28 06:19N 53°29' E 009°59'0 0.0
2014-Aug-28 05:32N 53°29' E 009°59'0 0.0
2014-Aug-28 04:31N 53°29' E 009°59'0 0.0
2014-Aug-28 03:25N 53°29' E 009°59'0 0.0
2014-Aug-28 02:25N 53°29' E 009°59'0 0.0
2014-Aug-28 01:32N 53°29' E 009°59'0 0.0
2014-Aug-28 00:32N 53°29' E 009°59'0 0.0
2014-Aug-27 23:25N 53°29' E 009°59'0 0.0
2014-Aug-27 22:28N 53°29' E 009°59'0 0.0
2014-Aug-27 21:25N 53°29' E 009°59'0 0.0
2014-Aug-27 20:28N 53°29' E 009°59'0 0.0
2014-Aug-27 19:32N 53°29' E 009°59'0 0.0
2014-Aug-27 18:25N 53°29' E 009°59'0 0.0
2014-Aug-27 17:32N 53°29' E 009°59'0 0.0
2014-Aug-27 16:25N 53°29' E 009°59'0 0.0
2014-Aug-27 15:33N 53°29' E 009°59'1 1.1
2014-Aug-27 14:33N 53°30' E 009°58'5 4.6
2014-Aug-27 13:33N 53°33' E 009°51'1010.1
2014-Aug-27 12:33N 53°36' E 009°36'1212.1
2014-Aug-27 11:33N 53°46' E 009°24'1211.9
2014-Aug-27 10:33N 53°53' E 009°08'1212.1
2014-Aug-27 09:34N 53°50' E 008°48'1212.1
2014-Aug-27 08:33N 53°58' E 008°31'1313.4
2014-Aug-27 07:33N 53°60' E 008°09'8 7.8
2014-Aug-27 06:33N 53°58' E 007°56'3 2.6
2014-Aug-27 05:33N 53°58' E 007°51'1 0.6
2014-Aug-27 04:28N 53°58' E 007°52'5911.1
2014-Aug-26 23:07N 53°43' E 006°15'712.7
2014-Aug-26 22:33N 53°41' E 006°04'1212.4
2014-Aug-26 21:33N 53°37' E 005°44'1212.4
2014-Aug-26 20:33N 53°33' E 005°24'1312.6
2014-Aug-26 19:34N 53°29' E 005°04'1212.4
2014-Aug-26 18:33N 53°24' E 004°45'1313.0
2014-Aug-26 17:32N 53°13' E 004°33'1313.4
2014-Aug-26 16:33N 53°02' E 004°22'1313.5
2014-Aug-26 15:33N 52°49' E 004°13'3015.0
2014-Aug-26 13:33N 52°28' E 003°39'4314.2
2014-Aug-26 10:33N 51°47' E 003°16'1211.7
2014-Aug-26 09:30N 51°36' E 003°10'1213.1
2014-Aug-26 08:34N 51°25' E 003°00'1616.3
2014-Aug-26 07:34N 51°25' E 003°26'1110.8
2014-Aug-26 06:34N 51°23' E 003°43'1211.9
2014-Aug-26 05:34N 51°23' E 004°02'10 9.6
2014-Aug-26 04:33N 51°21' E 004°17'0 0.0
2014-Aug-26 03:33N 51°21' E 004°17'2 2.3
2014-Aug-26 02:33N 51°19' E 004°19'3 2.7
2014-Aug-26 01:32N 51°17' E 004°23'0 0.0
2014-Aug-26 00:29N 51°17' E 004°23'0 0.0
2014-Aug-25 23:32N 51°17' E 004°23'0 0.0
2014-Aug-25 22:32N 51°17' E 004°23'0 0.0
2014-Aug-25 21:32N 51°17' E 004°23'0 0.0
2014-Aug-25 20:32N 51°17' E 004°23'0 0.0
2014-Aug-25 19:32N 51°17' E 004°23'0 0.0
2014-Aug-25 18:32N 51°17' E 004°23'0 0.0
2014-Aug-25 17:32N 51°17' E 004°23'0 0.0
2014-Aug-25 16:32N 51°17' E 004°23'0 0.0
2014-Aug-25 15:29N 51°17' E 004°23'0 0.0
2014-Aug-25 14:26N 51°17' E 004°23'0 0.0
2014-Aug-25 13:32N 51°17' E 004°23'0 0.0
2014-Aug-25 12:32N 51°17' E 004°23'0 0.0
2014-Aug-25 11:29N 51°17' E 004°23'0 0.0
2014-Aug-25 10:32N 51°17' E 004°23'0 0.0
2014-Aug-25 09:32N 51°17' E 004°23'0 0.0
2014-Aug-25 08:32N 51°17' E 004°23'0 0.0
2014-Aug-25 07:32N 51°17' E 004°23'0 0.0
2014-Aug-25 06:32N 51°17' E 004°23'0 0.0
2014-Aug-25 05:32N 51°17' E 004°23'0 0.0
2014-Aug-25 04:32N 51°17' E 004°23'0 0.0
2014-Aug-25 03:32N 51°17' E 004°23'0 0.0
2014-Aug-25 02:32N 51°17' E 004°23'0 0.0
2014-Aug-25 01:32N 51°17' E 004°23'0 0.0
2014-Aug-25 00:29N 51°17' E 004°23'0 0.0
2014-Aug-24 23:32N 51°17' E 004°23'0 0.0
2014-Aug-24 22:32N 51°17' E 004°23'0 0.0
2014-Aug-24 21:29N 51°17' E 004°23'0 0.0
2014-Aug-24 20:32N 51°17' E 004°23'0 0.0
2014-Aug-24 19:32N 51°17' E 004°23'0 0.0
2014-Aug-24 18:32N 51°17' E 004°23'0 0.0
2014-Aug-24 17:32N 51°17' E 004°23'0 0.0
2014-Aug-24 16:32N 51°17' E 004°23'0 0.0
2014-Aug-24 15:32N 51°17' E 004°23'0 0.0
2014-Aug-24 14:32N 51°17' E 004°23'0 0.0
2014-Aug-24 13:32N 51°17' E 004°23'0 0.0
2014-Aug-24 12:32N 51°17' E 004°23'0 0.0
2014-Aug-24 11:32N 51°17' E 004°23'0 0.0
2014-Aug-24 10:32N 51°17' E 004°23'0 0.0
2014-Aug-24 09:32N 51°17' E 004°23'0 0.0
2014-Aug-24 08:32N 51°17' E 004°23'0 0.0
2014-Aug-24 07:32N 51°17' E 004°23'0 0.0
2014-Aug-24 06:32N 51°17' E 004°23'0 0.0
2014-Aug-24 05:32N 51°17' E 004°23'0 0.0
2014-Aug-24 04:32N 51°17' E 004°23'0 0.0
2014-Aug-24 03:32N 51°17' E 004°23'0 0.0
2014-Aug-24 02:29N 51°17' E 004°23'0 0.0
2014-Aug-24 01:32N 51°17' E 004°23'0 0.0
2014-Aug-24 00:32N 51°17' E 004°23'0 0.0
2014-Aug-23 23:32N 51°17' E 004°23'0 0.0
2014-Aug-23 22:32N 51°17' E 004°23'0 0.0
2014-Aug-23 21:32N 51°17' E 004°23'0 0.0
2014-Aug-23 20:32N 51°17' E 004°23'0 0.0
2014-Aug-23 19:32N 51°17' E 004°23'0 0.0
2014-Aug-23 03:32N 51°17' E 004°23'0 0.0
2014-Aug-23 02:32N 51°17' E 004°23'0 0.0
2014-Aug-23 01:32N 51°17' E 004°23'0 0.0
2014-Aug-23 00:32N 51°17' E 004°23'0 0.0
2014-Aug-22 23:32N 51°17' E 004°23'0 0.0
2014-Aug-22 22:32N 51°17' E 004°23'0 0.0
2014-Aug-22 21:29N 51°17' E 004°23'0 0.0
2014-Aug-22 20:32N 51°17' E 004°23'0 0.0
2014-Aug-22 19:32N 51°17' E 004°23'0 0.0
2014-Aug-22 18:32N 51°17' E 004°23'0 0.0
2014-Aug-22 17:29N 51°17' E 004°23'0 0.0
2014-Aug-22 16:32N 51°17' E 004°23'0 0.0
2014-Aug-22 15:32N 51°17' E 004°23'0 0.0
2014-Aug-22 14:32N 51°17' E 004°23'0 0.0
2014-Aug-22 13:32N 51°17' E 004°23'0 0.0
2014-Aug-22 12:34N 51°17' E 004°23'0 0.2
2014-Aug-22 11:33N 51°17' E 004°22'4 3.7
2014-Aug-22 10:34N 51°20' E 004°18'1 1.3
2014-Aug-22 09:34N 51°21' E 004°17'0 0.2
2014-Aug-22 08:34N 51°21' E 004°17'10 9.5
2014-Aug-22 07:33N 51°23' E 004°02'10 9.8
2014-Aug-22 06:34N 51°21' E 003°47'1010.4
2014-Aug-22 05:33N 51°25' E 003°31'1615.7
2014-Aug-22 04:34N 51°24' E 003°06'1514.6
2014-Aug-22 03:33N 51°22' E 002°43'1312.7
2014-Aug-22 02:32N 51°20' E 002°22'1313.8
2014-Aug-22 01:33N 51°13' E 002°04'1414.3
2014-Aug-22 00:33N 51°05' E 001°45'1515.0
2014-Aug-21 23:33N 50°54' E 001°28'2014.3
2014-Aug-21 22:08N 50°36' E 001°12'1214.0
2014-Aug-21 21:17N 50°29' E 000°58'1014.2
2014-Aug-21 20:33N 50°26' E 000°42'28112.8
2014-Aug-20 22:33N 48°14' W 005°38'4113.8
2014-Aug-20 19:33N 47°44' W 004°56'  

Dump ship's entire track history